Retour au catalogue

INSAT 2R

ARABSAT 1C

ActifCommunicationsGEO
NORAD 21894·PAYLOAD·🇮🇳 India

Lancé Feb 26, 1992 depuis Guiana Space Centre

Loading…

TLE

FraisSource: Space-Track

Époque: Sep 13, 2026, 18:53 UTC

1 21894U 92010B   26256.78725175 -.00000097  00000-0  00000-0 0  9996
2 21894  14.4205  10.9837 0029272 275.3033  93.0587  0.98682846125129

Suivez INSAT 2R en temps réel avec AllMySat

Download on the App Store